Las Vegas, NM

5:23 AM MST on December 15, 2017 (GMT -0700)
Las Vegas Municipal

Weather History for KLVS - November, 2013

Change the Weather History Date:

Saturday, November 2, 2013

  Actual Average Record
Temperature  
Mean Temperature 44 °F -  
Max Temperature 62 °F 55 °F 75 °F (2015)
Min Temperature 27 °F 26 °F -7 °F (1951)
Degree Days  
Heating Degree Days 20    
Moisture  
Dew Point 20 °F    
Average Humidity 46    
Maximum Humidity 75    
Minimum Humidity 16    
Precipitation  
Precipitation 0.00 in - - ()
Sea Level Pressure  
Sea Level Pressure 30.13 in    
Wind  
Wind Speed 11 mph (SSW)    
Max Wind Speed 28 mph    
Max Gust Speed 34 mph    
Visibility 10 miles    
Events      
Averages and records for this station are not official NWS values.
T = Trace of Precipitation, MM = Missing Value Source: NWS Daily Summary

Daily Weather History Graph

Daily Weather History Graph

Search for Another Location

Airport or City:

Trip Planner

Search our weather history database for the weather conditions in past years. The results will help you decide how hot, cold, wet, or windy it might be!

Date:

Astronomy

Nov. 02, 2013 Rise Set
Actual Time 7:23 AM MDT 6:03 PM MDT
Civil Twilight 6:57 AM MDT 6:30 PM MDT
Nautical Twilight 6:27 AM MDT 7:00 PM MDT
Astronomical Twilight 5:57 AM MDT 7:30 PM MDT
Moon 6:25 AM MDT (11/2) 5:36 PM MDT (11/2)
Length of Visible Light 11h 33m
Length of Day
10h 40m
Waning Crescent, 1% of the Moon is Illuminated
Nov 2
Waning Crescent
Nov 3
New
Nov 9
First Quarter
Nov 17
Full
Nov 25
Last Quarter

Hourly Weather History & Observations

Time (MDT) Temp. Windchill Dew Point Humidity Pressure Visibility Wind Dir Wind Speed Gust Speed Precip Events Conditions
12:53 AM 33.1 °F - 21.0 °F 61% 30.23 in 10.0 mi Calm Calm - N/A   Clear
1:53 AM 28.0 °F 24.2 °F 19.0 °F 69% 30.25 in 10.0 mi South 3.5 mph - N/A   Clear
2:53 AM 32.0 °F 28.7 °F 19.0 °F 59% 30.22 in 10.0 mi WSW 3.5 mph - N/A   Clear
3:53 AM 28.9 °F 21.9 °F 19.9 °F 69% 30.22 in 10.0 mi SW 6.9 mph - N/A   Clear
4:53 AM 27.0 °F 17.3 °F 19.9 °F 75% 30.23 in 10.0 mi SW 10.4 mph - N/A   Clear
5:53 AM 28.0 °F 18.6 °F 21.0 °F 75% 30.25 in 10.0 mi SW 10.4 mph - N/A   Clear
6:53 AM 28.0 °F 17.0 °F 21.0 °F 75% 30.28 in 10.0 mi SSW 13.8 mph - N/A   Clear
7:53 AM 28.0 °F 18.6 °F 21.0 °F 75% 30.28 in 10.0 mi South 10.4 mph - N/A   Clear
8:53 AM 36.0 °F 28.0 °F 23.0 °F 59% 30.27 in 10.0 mi South 11.5 mph - N/A   Clear
9:53 AM 42.1 °F 36.6 °F 25.0 °F 51% 30.23 in 10.0 mi SW 9.2 mph - N/A   Clear
10:53 AM 46.9 °F - 25.0 °F 42% 30.21 in 10.0 mi SSW 15.0 mph - N/A   Clear
11:53 AM 54.0 °F - 24.1 °F 31% 30.16 in 10.0 mi SSW 18.4 mph - N/A   Clear
12:53 PM 59.0 °F - 21.0 °F 23% 30.10 in 10.0 mi SSW 21.9 mph - N/A   Clear
1:53 PM 60.1 °F - 18.0 °F 20% 30.08 in 10.0 mi SSW 25.3 mph 31.1 mph N/A   Clear
2:53 PM 62.1 °F - 15.1 °F 16% 30.01 in 10.0 mi SSW 27.6 mph 34.5 mph N/A   Clear
3:53 PM 62.1 °F - 15.1 °F 16% 30.01 in 10.0 mi SSW 25.3 mph 29.9 mph N/A   Clear
4:53 PM 59.0 °F - 16.0 °F 19% 30.02 in 10.0 mi SSW 25.3 mph 32.2 mph N/A   Clear
5:53 PM 54.0 °F - 18.0 °F 24% 30.04 in 10.0 mi SSW 16.1 mph - N/A   Clear
6:53 PM 50.0 °F - 21.9 °F 33% 30.06 in 10.0 mi SSW 16.1 mph - N/A   Clear
7:53 PM 46.0 °F 39.0 °F 21.0 °F 37% 30.08 in 10.0 mi South 17.3 mph - N/A   Clear
8:53 PM 46.0 °F 39.0 °F 19.9 °F 35% 30.04 in 10.0 mi SSW 17.3 mph - N/A   Clear
9:53 PM 43.0 °F 35.1 °F 21.0 °F 42% 30.01 in 10.0 mi SSW 17.3 mph - N/A   Clear
10:53 PM 39.0 °F 31.0 °F 19.9 °F 46% 29.99 in 10.0 mi South 13.8 mph - N/A   Clear
11:53 PM 39.0 °F 30.6 °F 19.0 °F 45% 29.94 in 10.0 mi South 15.0 mph - N/A   Clear